Location: *
(51.5000°N, 0.1100°W)
Time: 00:06:21
(UTC+00:00)

MSX - Pass Details

Date: 05 August 2024
Orbit: 895 x 904 km, 99.0° (Epoch: 09 September)

Event Time Altitude Azimuth Distance (km) Brightness Sun altitude
Rises 00:07:29 0° 30° (NNE) 3,543 7.9 -21.6°
Reaches altitude 10° 00:11:35 10° 58° (ENE) 2,596 6.6 -21.6°
Maximum altitude 00:14:00 13° 83° (E) 2,401 6.1 -21.6°
Drops below altitude 10° 00:16:26 10° 108° (ESE) 2,588 6.1 -21.6°
Enters shadow 00:17:20 - 116° (ESE) 2,742 6.1 -21.6°
